Voltar ao catálogo

INMARSAT 6-F1

AtivoComunicaçõesGEO
NORAD 50319·PAYLOAD·🇮🇲 IM

Lançado Dec 22, 2021 de Tanegashima Space Center

Loading…

TLE

AtualizadoSource: Space-Track

Época: Sep 14, 2026, 14:12 UTC

1 50319U 21128A   26257.59174108  .00000000  00000-0  00000-0 0  9999
2 50319   0.0210 147.8828 0000299 327.2568 175.2037  1.00272305 17153

Acompanhe INMARSAT 6-F1 em tempo real com AllMySat

Download on the App Store